sat.trackr.live / text

‹ back to catalog

STARLINK-5501

NORAD 55648 · 2023-021W

PAYLOAD ACTIVE UNKNOWN

§ Identity

Operator
Country
US
Launch date
2023-02-17
Launch site
AFWTR
Launch vehicle
Mass (kg)
RCS (m²)

Purposes: comms

External: N2YO · Heavens-Above · Gunter

§ Orbital elements

Epoch: 2026-09-20T22:00:07.287264Z

Period
96.11 min
Inclination
70.0005°
Eccentricity
0.0002971
Mean motion
14.98331547 rev/d
Perigee alt
570.0 km
Apogee alt
574.1 km
Semi-major
6,950.2 km
B*
2.9450e-5
RAAN
52.2562°
Arg perigee
267.3174°
Mean anomaly
92.7645°
Rev number
19,803

§ Raw data

STARLINK-55011 55648U 23021W   26263.91675101  .00000258  00000+0  29450-4 0  99932 55648  70.0005  52.2562 0002971 267.3174  92.7645 14.98331547198032

JSON: /api/v1/satellites/55648 · /tle

For live sub-satellite position, see the globe view (requires WebGL).

§ Visibility from observer

Set your observer location to see the next 7 days of passes ≥ 10°. The values pass through the URL so the page stays shareable.

No JS? Fill the form by hand. The geolocation button needs JavaScript.